Location: Banios
(43.0451°N, 0.2335°E)
Time: 13:48:43
(UTC+00:00)

A-11 Canister half - Pass Details

Date: 11 May 2021
Orbit: 1513 x 1686 km, 47.2° (Epoch: 14 June)

Event Time Altitude Azimuth Distance (km) Brightness Sun altitude
Rises 12:06:59 0° 167° (SSE) 4,687 11.9 64.9°
Reaches altitude 10° 12:13:52 10° 132° (SE) 3,680 11.3 64.7°
Maximum altitude 12:15:28 11° 122° (ESE) 3,634 11.2 64.6°
Drops below altitude 10° 12:17:04 10° 111° (ESE) 3,674 11.2 64.6°
Sets 12:23:50 0° 77° (ENE) 4,657 11.4 64.3°
